Location: Unspecified
(0.0000°N, 0.0000°E)
Time: 14:16:19
(UTC+00:00)

ISS - Visible Passes

Search period start: 01 October 2014 00:00
Search period end: 11 October 2014 00:00
Orbit: 413 x 416 km, 51.6° (Epoch: 01 October)

Date Brightness Start Highest point End Pass type
(mag) Time Alt. Az. Time Alt. Az. Time Alt. Az.
01 Oct -2.7 18:18:17 10° SSW 18:21:24 38° SE 18:24:30 10° NE visible
02 Oct -0.4 19:06:45 10° W 19:08:48 15° NW 19:10:52 10° NNW visible
03 Oct 0.0 05:06:59 10° NE 05:07:43 11° NE 05:08:27 10° ENE visible
03 Oct -1.7 18:16:37 10° WSW 18:19:43 36° NW 18:22:47 10° NNE visible
05 Oct -2.3 05:02:47 10° NNW 05:05:59 48° NE 05:09:12 10° SE visible
06 Oct -0.8 04:15:27 16° NNE 04:16:50 20° NE 04:19:19 10° ESE visible
07 Oct -2.3 05:02:22 18° WNW 05:04:08 28° SW 05:07:03 10° S visible
08 Oct -2.0 04:16:12 35° SSE 04:16:12 35° SSE 04:18:15 10° SSE visible
